RH
76 80 84 86 84 86 88 90 87 83 83 83 80 78 78 77 77 77 77 78 80 81 81 81 77 77 79 75 75 77 77 75 74 73 75 77 77 77 77 78 77 73 72 73 72 71 71 68 66 65 63 61 59 58 55 54 53 48 45 43 41 37 35 34 33 31 28 27 29 32 33 33 36 38 39 41 43 44 45 46 47 48 50 51 51 50 49 49 49 47 46 46 47 46 46 46 48
76 78 83 84 82 84 84 84 83 78 77 77 76 77 76 75 75 76 77 78 79 79 80 80 77 79 81 76 75 75 75 78 77 75 76 75 76 76 75 75 74 71 69 70 70 69 69 67 66 64 60 57 57 55 52 53 52 47 43 43 40 36 35 33 32 29 26 27 29 32 34 35 37 38 40 42 43 45 45 45 45 45 48 50 50 50 50 50 50 48 47 47 47 47 47 48 50
74 77 81 82 81 82 80 77 78 75 72 73 73 75 75 74 74 75 77 77 78 79 79 79 78 79 80 76 74 73 74 77 76 76 77 75 75 75 73 72 71 69 67 67 67 67 67 66 64 63 59 56 56 54 49 48 47 43 42 42 37 33 33 32 31 28 26 28 31 33 35 36 38 39 41 43 44 45 45 44 43 44 46 48 50 49 50 50 50 50 49 48 48 48 48 50 51
73 75 78 80 80 79 75 72 73 72 68 70 71 71 73 73 73 74 76 77 78 79 77 76 76 79 78 75 75 74 74 75 75 76 76 74 73 72 70 69 67 66 64 63 64 65 65 64 62 60 58 55 54 52 46 45 43 40 41 39 33 32 32 31 30 28 28 31 32 34 35 37 38 40 42 44 44 44 43 42 42 43 44 46 49 49 50 50 49 49 49 50 49 49 49 50 52
71 73 76 78 79 76 73 71 73 71 66 66 68 68 69 71 72 72 74 76 76 76 75 74 75 78 78 77 76 73 73 74 75 75 75 73 71 69 68 67 63 62 62 61 61 62 62 61 60 58 57 55 52 50 46 43 39 41 41 35 31 32 31 30 30 29 31 33 34 36 37 38 39 41 42 44 44 44 44 44 45 46 47 47 48 50 51 50 49 49 49 50 50 49 49 49 51
68 72 73 73 76 74 71 70 70 69 64 63 64 65 66 68 70 70 72 74 74 74 75 75 74 76 76 78 77 74 74 73 73 74 73 70 68 66 65 64 62 61 61 60 59 59 59 59 57 54 54 53 51 48 45 41 39 41 37 32 31 32 30 31 31 32 33 35 36 37 39 40 41 43 45 46 46 48 49 49 50 51 51 51 50 50 50 51 50 49 48 48 49 48 49 50 51
66 70 69 68 68 68 66 64 66 66 63 61 61 63 64 65 67 68 69 70 71 72 73 75 74 73 74 75 74 75 75 72 71 71 70 68 66 64 62 61 60 60 60 59 59 57 55 54 53 50 49 49 48 46 42 39 38 38 33 30 32 31 31 31 32 33 35 37 39 40 42 44 45 47 49 50 50 50 51 52 51 51 52 52 52 52 50 50 49 47 46 46 47 47 49 49 51
65 68 65 62 59 58 60 60 60 61 61 59 60 61 62 62 64 65 65 64 65 66 69 72 72 71 71 71 70 73 76 72 70 68 66 66 64 62 61 60 59 59 60 59 58 56 52 51 50 47 45 45 44 42 39 38 37 34 31 31 32 31 31 33 34 36 38 40 41 43 46 47 48 50 51 51 51 50 50 51 50 51 51 51 52 51 50 48 46 45 44 45 45 45 47 48 50
68 69 65 61 56 54 55 55 54 56 58 57 58 60 61 61 61 62 61 60 59 60 62 66 68 68 69 69 69 71 74 70 67 67 64 62 62 60 60 59 58 57 57 57 56 55 53 51 49 45 43 42 41 40 38 36 34 32 32 33 32 32 33 35 37 39 40 42 42 45 48 49 50 52 52 52 52 50 49 49 49 49 49 49 49 49 49 47 46 44 43 44 44 44 46 47 48
70 70 67 64 59 55 50 49 50 52 53 53 55 57 58 59 58 58 58 56 56 57 58 61 64 66 66 66 68 67 70 67 63 64 62 59 57 57 59 58 56 54 53 53 54 54 53 51 47 45 43 40 39 38 36 34 33 32 33 34 34 34 35 37 39 40 41 42 43 47 49 50 52 52 52 52 52 50 50 49 48 47 46 46 48 48 48 48 47 45 43 44 43 45 46 47 47
69 68 68 65 60 56 49 46 47 47 48 48 51 54 55 55 56 56 56 55 56 56 57 58 59 63 63 65 67 65 66 64 61 63 61 57 55 55 56 55 53 52 50 49 50 52 52 50 47 44 43 40 37 36 36 35 34 34 34 35 36 36 37 39 40 41 41 41 44 47 49 49 51 52 52 51 50 50 49 49 47 46 45 45 46 46 48 49 48 47 45 44 44 46 47 46 46
67 64 66 63 61 59 52 48 45 44 45 47 50 52 52 52 53 53 53 55 56 56 57 57 56 59 60 62 65 63 63 63 61 62 61 58 57 55 53 51 50 49 49 46 47 50 50 48 46 44 43 41 38 37 38 38 36 35 36 37 37 37 38 39 40 40 40 41 44 47 48 49 50 51 51 50 49 49 48 47 46 45 44 43 43 44 46 48 49 49 47 46 46 46 46 46 47
67 63 64 62 63 63 56 51 46 45 46 45 49 51 51 50 51 51 52 55 55 54 55 56 55 56 57 60 63 62 61 61 61 63 63 62 59 56 52 50 48 47 47 45 46 49 48 47 45 44 43 42 40 39 40 39 38 37 38 38 38 38 38 39 39 39 39 41 44 46 48 48 49 50 49 47 46 45 43 43 43 44 43 41 42 42 42 44 46 47 46 45 45 46 47 48 50
67 65 65 63 65 63 56 51 47 46 45 43 47 49 48 47 49 53 55 55 54 53 54 54 54 53 54 58 62 62 61 60 60 62 63 63 61 58 53 50 47 46 47 46 46 46 46 45 44 43 42 42 41 40 40 40 40 39 39 39 38 38 38 38 39 39 39 42 44 45 47 47 46 46 45 42 40 38 39 41 43 45 44 42 42 42 42 44 45 45 45 45 46 47 49 51 51
67 66 65 63 65 62 55 50 46 45 44 44 46 47 44 43 45 50 53 54 54 55 55 55 53 51 51 54 56 59 61 60 59 60 61 60 60 58 54 51 47 45 46 47 46 45 44 44 43 43 41 41 40 40 40 40 41 40 40 39 38 37 37 37 38 38 40 41 43 44 45 43 42 42 40 37 37 38 40 42 44 46 47 46 45 45 46 47 46 45 44 43 43 44 46 47 48
66 66 65 63 64 62 56 50 47 46 45 44 46 46 43 41 42 43 44 46 50 54 53 54 54 51 52 53 55 57 60 60 59 57 58 57 57 56 54 52 47 44 45 46 45 44 44 44 44 42 41 40 39 40 39 39 40 40 39 39 38 37 37 37 37 38 39 40 41 43 43 40 39 38 38 38 38 41 41 42 45 48 49 47 46 46 44 43 41 39 38 38 38 41 42 42 43
64 66 66 63 63 62 57 50 47 47 44 44 46 46 44 44 44 43 41 41 45 49 49 52 53 53 54 55 55 56 58 59 58 56 55 54 53 53 53 51 48 43 43 43 44 44 44 44 44 42 41 40 40 39 39 39 39 39 39 38 38 37 37 36 37 39 40 41 42 42 41 38 37 37 39 40 41 41 40 40 43 45 44 43 43 42 39 37 36 36 35 35 36 38 40 40 41
61 64 64 62 63 61 58 52 47 45 44 45 47 47 47 47 47 46 44 41 41 42 43 48 51 52 51 52 54 57 57 58 59 56 54 53 51 50 50 50 47 44 43 42 42 43 44 44 43 43 41 39 39 39 38 39 39 39 39 39 38 38 38 38 38 40 41 42 42 41 39 37 36 38 41 42 42 41 40 39 40 41 42 42 43 41 39 38 38 37 37 37 36 37 39 41 42
59 61 62 61 62 59 58 55 48 46 44 45 47 48 48 49 50 49 45 42 42 40 40 42 47 49 49 51 54 57 59 58 59 57 54 53 51 49 48 49 47 46 44 42 41 42 42 42 41 41 41 40 39 39 38 38 39 40 40 39 39 38 39 39 40 41 41 42 42 40 37 37 37 39 41 42 41 40 39 39 41 42 43 44 43 41 41 41 40 39 38 37 36 37 40 43 44
58 61 61 58 59 58 57 56 51 48 46 45 46 48 48 49 51 49 46 45 44 42 41 41 43 46 50 53 54 55 57 57 57 55 52 52 51 49 48 47 47 47 45 42 42 41 40 40 39 39 40 40 39 39 38 37 39 41 40 39 39 39 39 40 41 41 41 41 40 39 37 38 38 39 41 41 40 40 39 41 42 43 43 43 41 41 40 40 41 40 40 38 38 39 42 45 46
59 62 61 57 56 57 56 55 51 49 46 44 46 47 47 49 51 50 48 47 44 42 42 41 41 44 49 53 53 53 53 54 54 51 49 49 48 49 48 47 47 47 46 43 42 41 40 39 37 38 38 38 38 38 38 37 38 39 39 39 38 38 39 40 40 40 41 40 40 39 38 38 38 40 41 39 39 40 40 42 43 42 43 42 41 41 41 42 41 41 42 41 41 42 44 46 47
57 59 60 59 57 57 56 54 50 47 46 45 45 45 45 48 49 49 48 45 42 41 41 41 41 42 44 49 53 53 53 51 51 49 46 46 47 48 47 47 46 46 46 44 42 40 39 38 36 37 36 36 36 37 37 37 36 37 38 39 38 38 39 39 40 40 40 40 40 39 37 38 38 39 40 39 39 40 39 43 44 43 44 43 43 43 43 43 43 42 42 41 42 44 45 47 48
54 55 59 60 59 58 56 53 50 46 44 43 44 44 44 46 47 47 48 44 41 42 41 40 41 41 40 46 52 53 53 51 49 48 45 45 46 47 46 46 45 46 45 43 42 39 37 36 35 36 35 35 36 36 36 35 35 35 36 37 37 38 38 39 39 39 40 40 39 38 37 38 38 39 40 39 41 40 40 42 44 44 45 45 45 45 44 43 43 43 43 42 42 43 45 46 46
51 53 57 58 58 58 56 53 49 46 44 42 43 43 42 42 41 43 45 44 44 43 41 40 41 42 41 44 51 53 53 51 49 47 44 43 44 45 45 45 44 44 43 41 40 38 36 35 34 34 33 34 35 35 35 35 35 35 36 37 37 37 37 38 39 39 39 39 37 36 38 39 40 40 40 42 42 40 40 42 44 45 46 46 46 45 45 45 44 44 43 42 43 43 45 45 45
50 54 56 55 56 56 55 52 48 46 44 43 42 42 41 39 38 41 42 42 45 44 43 43 43 44 43 43 48 51 50 50 49 46 44 42 43 45 44 43 43 42 40 38 37 37 36 34 32 33 32 32 34 34 35 35 35 36 36 37 38 38 38 38 38 38 38 37 35 36 39 40 41 42 42 44 43 41 42 43 43 44 45 45 46 46 46 46 45 45 45 45 44 45 45 45 45
48 52 52 52 53 52 52 51 48 47 45 42 41 40 39 38 38 39 40 42 45 46 45 46 45 46 46 43 45 49 49 48 47 44 43 42 42 44 44 42 40 38 37 36 36 35 34 33 32 32 31 31 33 33 34 35 35 35 35 36 37 36 37 37 36 37 36 35 35 36 40 41 43 43 43 45 43 42 44 44 43 45 45 46 46 47 48 47 46 46 46 46 46 47 48 46 44
44 47 47 48 49 48 49 48 48 47 44 42 41 38 37 38 38 38 39 43 45 47 48 48 47 48 49 45 43 48 49 47 45 42 42 41 40 41 42 40 37 35 34 34 34 33 32 31 31 31 31 31 32 32 33 33 33 32 33 34 34 34 34 34 34 34 34 35 35 37 39 41 43 44 43 44 42 42 45 45 45 45 45 46 46 47 48 48 47 47 47 48 47 47 47 45 43
40 42 42 43 43 43 45 44 45 44 42 41 40 38 38 39 39 38 40 44 45 47 50 51 49 48 51 49 45 47 49 47 45 41 39 39 37 38 39 36 34 32 31 31 31 31 30 30 29 29 29 30 30 31 31 31 30 30 31 33 33 32 32 32 31 32 33 34 35 37 38 40 42 43 43 42 41 42 44 44 44 43 45 46 46 46 48 48 47 47 47 47 46 44 42 41 39
36 37 39 40 39 40 42 42 41 41 39 39 40 37 38 41 40 40 42 44 45 46 50 53 52 51 53 51 48 48 48 47 45 41 38 37 35 34 34 32 31 30 28 29 30 29 28 28 28 27 27 28 29 29 29 29 28 29 30 31 32 31 31 31 31 32 33 34 35 36 37 38 40 41 41 40 40 42 42 42 43 43 45 46 46 47 47 47 46 46 46 44 43 40 37 36 34
33 33 35 38 37 37 39 40 38 38 38 39 40 35 35 39 39 40 42 44 46 48 51 53 55 54 54 53 50 48 47 45 45 42 38 37 34 31 31 30 29 29 28 29 29 28 27 27 27 26 26 26 27 28 28 28 28 29 30 30 31 31 31 31 31 33 33 34 35 36 36 36 37 38 39 37 38 41 41 41 42 43 44 44 44 45 46 46 45 44 41 38 37 35 35 34 30
31 31 32 34 36 36 37 38 36 37 38 37 38 34 33 35 37 40 41 43 47 51 53 55 56 56 56 54 51 49 46 43 42 42 39 37 34 31 30 30 29 28 28 27 27 27 26 26 26 26 26 26 26 27 27 28 29 29 30 30 30 30 31 32 32 33 33 34 35 35 35 35 36 37 38 37 38 40 40 41 41 42 43 42 42 42 43 43 42 40 36 34 34 36 43 40 30
30 32 33 32 32 35 37 36 35 37 37 36 35 34 33 32 34 39 41 44 48 53 55 55 57 59 57 55 53 51 48 43 41 41 41 39 35 31 29 30 29 28 27 26 26 26 26 26 27 27 26 26 26 27 28 28 28 28 29 29 29 29 30 32 33 34 34 33 34 34 34 35 35 37 37 38 39 39 39 40 41 42 42 42 43 43 42 40 38 36 34 37 38 40 46 41 34
28 31 34 32 31 35 38 35 33 35 35 34 33 32 32 32 34 38 43 46 49 53 55 56 57 60 60 58 56 52 49 44 40 39 40 40 37 31 28 29 29 28 27 26 26 25 26 26 27 27 27 26 26 27 28 28 27 27 27 27 28 28 29 30 32 33 33 32 34 34 35 35 35 36 36 37 37 37 38 40 42 44 44 45 46 44 40 36 34 35 38 41 40 40 42 39 36
24 28 31 32 32 35 37 35 32 33 33 32 32 32 32 33 35 39 45 48 49 52 54 56 58 59 61 61 57 53 50 45 39 36 38 39 38 33 28 28 28 29 28 27 26 24 25 25 26 27 26 27 27 27 27 27 26 26 26 26 27 26 27 28 28 29 30 31 33 35 35 35 35 35 35 36 35 36 38 41 43 45 45 46 44 39 35 33 33 35 41 41 38 38 39 40 40
20 26 30 31 32 33 35 35 32 32 31 30 30 32 32 32 36 41 45 47 48 51 54 56 58 59 61 60 57 53 51 48 39 33 35 37 37 35 30 29 28 28 29 28 27 25 24 25 25 26 26 26 27 26 27 27 26 25 25 25 25 25 25 26 26 27 28 29 31 33 35 35 36 36 36 36 37 37 40 42 43 44 45 43 38 34 31 32 34 35 39 39 37 38 41 43 44
19 22 28 31 31 32 33 34 33 31 30 28 28 31 32 32 37 40 44 46 47 49 54 56 58 60 61 60 58 54 53 52 42 32 32 33 34 34 32 30 27 27 28 28 28 26 25 25 25 25 24 25 25 25 25 25 24 24 23 23 22 22 23 24 25 26 27 28 29 31 33 35 37 36 37 39 39 39 41 41 42 44 44 39 34 32 31 34 36 37 39 41 40 41 45 47 47
18 21 24 28 30 30 31 33 33 31 29 27 27 31 32 32 37 40 42 46 47 48 52 56 58 60 61 61 60 57 55 53 44 33 31 31 30 31 31 29 29 28 27 27 27 26 25 24 24 24 23 23 23 22 22 21 21 21 20 20 20 21 22 24 24 26 28 29 30 30 32 34 36 37 38 40 41 40 40 40 42 45 42 36 33 33 34 37 38 40 43 44 44 45 47 49 48
16 19 22 26 28 28 30 32 34 32 29 27 27 30 32 32 35 39 41 44 46 47 49 52 56 59 62 62 60 60 57 53 46 37 31 30 29 29 30 32 32 29 26 25 25 25 24 24 23 22 22 21 20 20 19 19 19 19 19 19 21 22 23 24 25 26 28 29 30 31 31 32 36 37 38 39 40 40 40 40 44 45 39 35 34 34 38 41 42 46 48 47 47 48 51 51 50
13 16 20 23 24 28 30 31 34 34 29 27 27 29 32 32 33 36 39 41 45 46 47 49 52 56 61 62 61 60 58 54 49 41 32 29 28 28 30 33 33 30 26 24 25 24 24 23 22 21 20 19 18 18 18 18 18 20 21 22 23 24 24 25 26 28 29 30 30 30 30 31 34 36 37 38 39 39 40 42 44 42 36 33 34 37 42 44 47 50 50 49 50 51 53 52 50
12 13 16 17 19 27 32 32 32 33 29 26 26 28 30 33 33 35 38 40 42 44 46 47 48 51 57 60 60 61 59 55 51 46 37 31 29 26 28 30 31 31 28 24 23 23 22 21 20 19 18 17 17 17 17 18 19 21 22 24 25 27 27 27 27 28 29 29 29 29 28 29 32 34 36 37 38 39 40 43 43 38 34 35 37 40 44 47 49 50 51 52 52 52 53 51 47
11 11 12 13 16 22 29 33 32 31 30 26 25 26 28 32 32 33 38 40 40 43 45 45 46 48 52 56 58 60 60 57 52 48 41 35 31 27 25 25 27 29 26 23 22 21 20 19 19 18 17 17 16 16 16 18 20 21 22 24 26 26 26 26 25 26 27 28 28 27 26 27 30 32 34 36 37 38 41 43 40 35 35 37 39 43 46 49 50 50 53 54 52 52 52 48 43
11 10 9 11 14 18 24 32 33 33 32 28 27 26 26 31 32 32 38 39 39 41 41 42 45 46 48 52 57 59 60 57 52 47 42 36 33 29 24 22 24 25 23 21 20 19 19 18 18 18 17 17 17 16 16 17 19 20 21 22 22 22 22 22 23 24 26 27 28 28 27 27 28 30 33 35 37 38 41 42 38 35 36 39 41 45 49 50 50 51 54 53 50 50 48 44 40
12 9 8 10 13 15 20 28 33 34 34 31 30 27 25 28 30 31 36 38 38 39 39 41 43 44 45 49 53 56 58 57 53 48 43 39 35 30 25 20 20 21 20 20 20 19 18 18 18 18 18 17 17 17 17 17 18 19 20 20 20 20 20 21 22 24 26 27 29 29 29 28 27 29 31 33 37 39 41 40 37 35 37 40 43 48 51 51 50 52 53 51 47 47 44 39 38
12 9 7 9 10 13 17 24 30 33 32 31 30 28 25 25 26 29 34 35 37 39 39 40 41 42 44 46 49 53 56 57 55 50 46 42 38 31 25 20 17 18 19 20 20 19 19 18 18 18 18 18 17 17 17 17 18 19 19 19 19 19 19 20 21 23 25 26 29 29 29 29 27 29 31 33 37 39 40 38 34 34 37 41 44 49 51 50 51 53 52 48 44 44 41 36 35
12 9 8 8 9 10 14 18 24 28 29 28 26 26 25 22 23 28 33 33 34 37 39 39 40 42 43 44 47 51 54 55 54 51 47 43 39 34 27 22 18 18 19 18 18 19 19 19 19 19 18 18 17 17 18 18 18 18 19 19 19 19 19 21 22 23 24 25 27 28 29 28 28 28 30 34 37 39 40 36 31 33 37 40 45 49 50 50 52 52 49 46 43 42 39 35 34
11 9 9 10 10 10 13 15 18 22 24 22 21 22 22 21 20 25 31 31 31 34 37 38 40 41 43 43 45 48 50 53 54 52 49 45 40 36 32 26 20 19 18 17 17 18 18 19 19 19 18 17 17 17 18 18 18 18 19 19 19 19 19 20 21 22 23 23 24 25 27 28 27 28 30 34 37 38 39 34 29 31 36 40 46 49 49 50 51 50 49 46 43 41 38 35 36
11 10 11 11 11 12 13 13 14 17 18 17 17 19 19 19 18 20 25 28 29 32 35 38 39 40 41 43 44 44 45 49 53 53 51 48 42 39 35 29 22 20 19 18 17 18 18 18 19 18 17 18 18 18 18 18 18 18 18 18 18 19 19 20 20 21 21 22 22 22 23 26 27 27 29 33 36 37 38 34 28 29 34 39 45 47 46 49 50 50 49 46 42 40 38 36 36
11 12 12 13 14 14 13 14 15 16 16 14 15 16 17 18 17 17 19 23 27 31 32 35 37 39 40 42 43 43 44 47 50 52 51 50 46 41 38 32 25 21 20 19 17 18 19 19 18 18 18 19 19 19 19 19 19 19 19 19 18 19 19 19 20 20 20 20 21 22 22 23 25 26 29 32 36 36 36 34 29 27 31 37 42 44 44 47 49 49 49 45 41 41 39 36 36
12 12 13 14 16 15 15 15 14 14 14 12 12 14 15 16 15 15 16 19 25 28 30 32 35 38 40 41 42 44 44 46 47 49 50 50 47 44 41 37 31 24 20 18 17 19 19 19 19 18 18 19 19 20 20 20 21 21 21 21 20 20 19 19 19 19 19 19 20 21 21 22 22 23 26 29 35 36 35 34 31 26 29 35 39 41 43 45 47 48 47 43 41 41 40 37 36
13 13 13 14 15 15 15 15 13 12 12 11 10 12 14 14 13 12 13 16 21 26 30 30 32 36 38 40 42 42 42 42 43 45 47 47 47 44 41 39 36 32 25 20 18 19 19 18 19 19 18 19 19 19 20 20 21 21 21 22 22 21 20 19 19 18 19 18 19 20 21 21 21 21 22 25 32 36 34 34 32 27 27 33 37 40 42 43 45 46 45 43 42 42 41 40 38
12 12 13 14 13 13 13 13 12 10 11 12 11 11 13 13 13 13 13 14 18 25 29 30 31 33 35 38 40 39 38 37 38 39 41 43 43 43 42 39 38 36 32 25 21 20 19 18 18 18 18 19 19 20 20 20 20 20 21 22 22 22 21 20 20 19 19 18 18 19 20 20 20 20 20 21 27 34 35 33 32 28 27 31 36 39 41 41 42 44 43 42 42 43 43 42 40
13 12 13 14 13 12 11 11 11 10 11 13 12 10 11 11 11 12 12 13 15 21 27 29 30 32 33 36 37 36 36 36 37 38 38 39 40 41 41 40 37 37 36 32 26 22 20 19 20 20 19 19 20 21 21 21 21 21 21 22 23 23 22 21 20 20 20 19 19 19 19 19 20 20 20 20 24 31 34 33 31 28 27 30 34 38 39 39 40 42 42 42 42 43 44 43 41
15 14 14 13 12 11 11 12 12 11 11 13 12 10 8 9 9 9 10 12 13 16 22 27 29 31 32 33 34 35 35 36 37 38 38 37 38 38 40 40 39 37 36 34 30 25 22 22 23 23 23 23 23 23 24 24 24 24 24 24 24 25 24 23 21 21 21 21 21 20 19 19 19 19 19 19 22 28 33 32 30 29 28 30 33 37 38 38 39 41 41 41 42 43 44 43 40
15 15 13 12 13 13 13 14 14 12 11 12 11 9 8 9 9 10 9 10 11 13 18 24 27 29 30 31 32 33 34 35 35 36 36 36 36 36 37 39 38 38 36 35 32 29 27 26 27 27 26 25 25 26 27 27 27 27 26 26 26 26 26 26 24 23 22 22 22 21 21 20 20 20 20 20 21 26 31 30 28 28 30 31 33 35 37 37 39 41 41 41 42 43 45 44 40
14 14 13 14 16 15 15 16 15 13 12 12 12 10 9 8 8 9 10 10 10 11 15 21 25 27 28 30 31 31 32 34 34 35 37 37 37 37 36 37 38 38 37 36 35 33 31 30 32 33 31 29 28 28 29 30 29 28 28 27 27 26 27 27 28 27 26 24 23 22 22 22 21 21 21 22 23 26 29 29 27 28 31 33 33 34 36 37 39 42 41 41 42 43 45 44 41
14 14 14 15 16 16 16 15 13 12 13 12 11 11 9 8 7 6 8 9 11 11 13 17 21 24 25 26 29 30 31 32 32 34 35 36 36 37 38 38 39 39 38 38 38 37 35 33 33 35 35 35 35 34 33 33 31 29 27 26 26 26 27 28 29 29 29 28 26 24 23 23 23 23 22 24 25 26 28 28 27 28 32 35 34 34 36 37 39 41 41 41 42 43 45 45 43
16 15 15 15 15 15 15 15 12 12 13 13 12 11 9 8 7 5 5 7 9 11 13 14 16 19 21 22 26 28 30 29 29 31 32 32 33 34 37 38 40 41 41 41 42 41 40 38 34 33 36 39 39 38 38 37 35 32 29 27 27 26 26 27 27 29 30 31 30 28 26 25 26 26 25 25 26 27 29 28 27 28 33 37 36 34 36 37 39 40 40 41 42 43 45 45 45
15 14 14 13 14 14 15 16 13 11 12 13 12 11 9 8 8 7 6 6 6 9 11 12 13 15 17 19 22 27 28 28 28 28 29 30 30 31 34 38 40 42 43 43 43 43 43 42 38 36 37 39 40 40 40 41 39 36 32 31 31 30 29 29 29 30 31 32 33 32 31 29 29 28 28 28 27 27 29 29 27 27 32 37 36 35 37 39 40 41 41 41 42 43 44 43 44